Location: Dreilärchen
(47.9312°N, 8.6113°E)
Time: 22:50:52
(UTC+00:00)

AQUA - Pass Details

Date: 26 May 2022
Orbit: 701 x 703 km, 98.2° (Epoch: 02 July)

Event Time Altitude Azimuth Distance (km) Brightness Sun altitude
Rises 01:11:57 0° 17° (NNE) 3,103 8.8 -16.7°
Reaches altitude 10° 01:14:15 10° 21° (NNE) 2,180 7.7 -16.6°
Maximum altitude 01:18:58 58° 101° (E) 824 4.2 -16.2°
Enters shadow 01:22:02 21° 174° (S) 1,554 5.1 -16.0°
